Simultaneous Nadir Overpasses (SNOs) Predictions

Prediction of SNOs between METOP-A and TERRA Satellite Orbit:

Table of predicted SNOs for the next 14.0 days since TLE Epoch: 10/13/2018
Index Date (METOP-A) Time (METOP-A) Lat,Lon (METOP-A) SZA (METOP-A ) Date (TERRA) Time (TERRA) Lat,Lon (TERRA) SZA (TERRA ) Distance(km) Time Diff (sec)
1 10/13/2018 23:59:02 81.43,-130.50 92.78 10/13/2018 23:59:56 81.43,-130.37 92.83 2.30 54
2 10/14/2018 00:49:42 -81.43, 36.99 87.19 10/14/2018 00:49:23 -81.43, 37.15 87.18 2.61 19
3 10/16/2018 19:33:18 81.43, -64.09 93.83 10/16/2018 19:34:10 81.42, -64.12 93.85 0.89 52
4 10/16/2018 20:23:57 -81.43, 103.82 86.09 10/16/2018 20:23:36 -81.44, 103.82 86.10 0.90 21
5 10/19/2018 15:07:33 81.43, 2.71 94.91 10/19/2018 15:08:23 81.44, 2.57 94.92 2.51 50
6 10/19/2018 15:58:13 -81.43, 170.24 85.06 10/19/2018 15:57:50 -81.43, 170.14 85.09 1.63 23
7 10/22/2018 10:41:48 81.43, 69.10 95.91 10/22/2018 10:42:36 81.43, 68.91 95.91 3.13 48
8 10/22/2018 11:32:28 -81.43,-123.36 84.06 10/22/2018 11:32:03 -81.43,-123.49 84.09 2.11 25
9 10/25/2018 06:16:04 81.43, 135.46 96.89 10/25/2018 06:16:50 81.43, 135.29 96.89 2.77 46




NCC Satellite Simultaneous Nadir Overpasses (SNOs) Prediction Service
